Regional Weather Roundup
Issued by NWS

Home | Current Version | Previous Version | Text Only | Print | Product List | Glossary On
Versions: 1 2 3 4 5 6 7 8 9 10 11 12 13 14 15 16 17 18 19 20 21 22 23 24 25 26 27 28 29 30 31 32 33 34 35 36 37 38 39 40 41 42 43 44 45 46 47 48 49 50
000
ASUS43 KTOP 210708
RWRKS

WEATHER ROUNDUP FOR KANSAS
NATIONAL WEATHER SERVICE GOODLAND KS
200 AM CDT MON MAY 21 2018

NOTE:  "FAIR" INDICATES FEW OR NO CLOUDS BELOW 12,000 FEET WITH NO
SIGNIFICANT WEATHER AND/OR OBSTRUCTIONS TO VISIBILITY.

KSZ001>006-013>018-027>032-041>047-210800-
NORTHWEST KANSAS

CITY           SKY/WX    TMP DP  RH WIND       PRES   REMARKS
GOODLAND       MOCLDY    48  47  96 S8        30.11F
HAYS           FOG       53  52  96 E3        30.12F VSB 1/4
HILL CITY      CLOUDY    50  50 100 CALM      30.12F FOG
RUSSELL        MOCLDY    54  54 100 S3        30.10F
$$

KSZ061>065-074>080-084>089-210800-
SOUTHWEST KANSAS

CITY           SKY/WX    TMP DP  RH WIND       PRES   REMARKS
DODGE CITY     CLEAR     51  48  89 E5        30.12F
ELKHART        MOCLDY    55  49  81 S7        30.14F
GARDEN CITY    CLEAR     51  50  96 E7        30.12F
GREAT BEND     CLOUDY    57  54  89 NE5       30.12S
LIBERAL        CLEAR     56  51  84 E8        30.13
PRATT          CLEAR     56  53  91 NE5       30.12S
$$

KSZ066>073-081>083-090>101-210800-
SOUTHEAST KANSAS

CITY           SKY/WX    TMP DP  RH WIND       PRES   REMARKS
CHANUTE        MOCLDY    61  60  97 CALM      30.07S
COFFEYVILLE    CLOUDY    63  61  93 NW5       30.06S
HUTCHINSON     CLOUDY    57  56  96 N7        30.09F
MEDICINE LODGE   N/A     58  55  90 NE3         N/A
NEWTON         CLOUDY    57  56  96 N7        30.10S
PARSONS        CLOUDY    61  60  97 CALM      30.08S
WICHITA INTL   MOCLDY    60  58  92 N5        30.09S
WICHITA JABRA  CLOUDY    59  58  96 N8        30.08F
WICHITA MCCONL CLEAR     59  57  94 N3        30.08F
WINFIELD       CLEAR     57  57 100 CALM      30.10R FOG
$$

KSZ007>012-019>026-033>040-048>060-102>105-210800-
NORTHEAST KANSAS

CITY           SKY/WX    TMP DP  RH WIND       PRES   REMARKS
CONCORDIA      CLOUDY    53  52  96 NW3       30.08S
EMPORIA        CLEAR     56  55  97 VRB3      30.07S FOG
LAWRENCE       CLOUDY    62  62 100 NW6       30.05S FOG
MANHATTAN      CLOUDY    58  55  90 CALM      30.07F
MARYSVILLE     CLOUDY    54  54 100 N6        30.07S
OLATHE IND     CLEAR     62  61  96 W7        30.05S FOG
OLATHE EXE     CLOUDY    61  61 100 W7        30.04S FOG
SALINA         CLOUDY    59  54  83 NW7       30.10S
TOPEKA BILLARD CLOUDY    62  61  96 NW8       30.05F FOG
TOPEKA FORBES  CLOUDY    63  61  93 NW10      30.05F FOG
$$




USA.gov is the U.S. government's official web portal to all federal, state and local government web resources and services.